Miscellaneous Local Product
Issued by NWS North Platte, NE

Home | Current Version | Previous Version | Graphics & Text | Print | Product List | Glossary On
Versions: 1 2 3 4 5 6 7 8 9 10 11 12 13 14 15 16 17 18 19 20 21 22 23 24 25 26 27 28 29 30 31 32 33 34 35 36 37 38 39 40 41 42 43 44 45 46 47 48 49 50
244
AXUS43 KLBF 212110
MISLBF


WESTERN AND NORTH CENTRAL NEBRASKA HOURLY WEATHER ROUNDUP
NATIONAL WEATHER SERVICE NORTH PLATTE NE
300 PM CST WED FEB 21 2018

NOTE: "FAIR" INDICATES FEW OR NO CLOUDS BELOW 12,000 FEET WITH NO
SIGNIFICANT WEATHER AND/OR OBSTRUCTIONS TO VISIBILITY.

NOTE: STATIONS NOT REPORTING VARIABLES SUCH AS SKY/WEATHER OR
PRESSURE ARE PROVIDED BY RAWS AND APRS NETWORKS AND ARE NOT UNDER
NATIONAL WEATHER SERVICE QUALITY CONTROL.

...OBSERVATIONS IN AND NEAR THE EASTERN PANHANDLE OF NEBRASKA...

CITY           SKY/WX    TMP DP  RH WIND       PRES   REMARKS
PINE RIDGE     FAIR      24  11  57 S16       30.24F WCI  11
GORDON         FAIR      27  13  54 S17       30.23F WCI  14
CHADRON        FAIR      14   2  58 CALM      30.24F
ALLIANCE       FAIR      25  13  60 S23       30.20F WCI  10
SIDNEY         FAIR      29  11  47 S17       30.21F WCI  17
$$

...OBSERVATIONS IN NORTHERN NEBRASKA AND FAR SOUTHERN SOUTH DAKOTA...

CITY           SKY/WX    TMP DP  RH WIND       PRES   REMARKS
WINNER         FAIR      24   9  52 S10       30.40F WCI  14
VALENTINE      FAIR      24  12  60 S16       30.35F WCI  11
AINSWORTH      FAIR      23  11  61 S12       30.38F WCI  12
O`NEILL        FAIR      20   6  55 S8        30.47F WCI  10
THEDFORD       FAIR      26  12  56 S12       30.37S WCI  15
BROKEN BOW     FAIR      23   8  52 SE9       30.41F WCI  13
ORD            FAIR      23   8  52 VRB6      30.46F WCI  16
ALBION         FAIR      23   6  47 SE5       30.51F WCI  17
$$

...OBSERVATIONS IN SOUTHWEST NEBRASKA AND FAR NORTHEAST COLORADO...

CITY           SKY/WX    TMP DP  RH WIND       PRES   REMARKS
WRAY           FAIR      30   9  40 SE15      30.28F WCI  19
HOLYOKE        FAIR      32  14  47 SE14      30.28F WCI  22
IMPERIAL       FAIR      24   9  52 SE12      30.33F WCI  13
OGALLALA       FAIR      25   9  50 S8        30.33F WCI  16
NORTH PLATTE   PTSUNNY   22   7  52 S9        30.40F WCI  12
MCCOOK         CLOUDY    28   5  37 SE8       30.39F WCI  20
LEXINGTON      FAIR      28   8  43 SE3       30.43F
GOTHENBURG       N/A     25   7  45 S6          N/A  WCI  18
CALLAWAY         N/A     22  11  61 S9          N/A  WCI  12
$$

...OBSERVATIONS IN CENTRAL LINCOLN COUNTY AREA...

CITY           SKY/WX    TMP DP  RH WIND       PRES   REMARKS
N.P. AIRPORT   PTSUNNY   22   7  52 S9        30.40F WCI  12
$$

...OBSERVATIONS ACROSS THE ROCKIES AND WESTERN HIGH PLAINS...

CITY           SKY/WX    TMP DP  RH WIND       PRES   REMARKS
RAPID CITY     FAIR       6  -1  73 SE10      30.20F WCI  -9
SCOTTSBLUFF    FAIR      28  10  46 SE16      30.20F WCI  16
CHEYENNE       FAIR      23  12  62 S6        30.07F WCI  16
DENVER         FAIR      21  14  74 N9        30.10F WCI  11
BERTHOUD PASS  FAIR       9  -2  61 SW14G30   29.86F WCI  -8
COPPER MTN     FAIR      19  -8  30 S8G17     29.88F WCI   9
MONARCH PASS   FAIR      12   9  85 SW24      30.02S WCI  -8
ASPEN          FAIR      27   8  44 N8        29.95F WCI  19
LARAMIE        FAIR      22   3  44 SW13      29.98F WCI  10
CASPER         FAIR      17   3  54 W17       30.09F WCI   1
$$

...OBSERVATIONS ACROSS THE NORTHERN PLAINS...

CITY           SKY/WX    TMP DP  RH WIND       PRES   REMARKS
BISMARCK       FAIR      16  -1  47 SW5       30.42S WCI   9
FARGO          FAIR      12   0  58 S15       30.54S WCI  -4
PIERRE         MIX PCPN   6  -2  69 SE10      30.42F WCI  -9
SIOUX FALLS    PTSUNNY   15   2  56 SW7       30.57F WCI   5
$$

...OBSERVATIONS ACROSS THE CENTRAL AND SOUTHERN PLAINS...

CITY           SKY/WX    TMP DP  RH WIND       PRES   REMARKS
OMAHA          PTSUNNY   25  11  55 VRB5      30.58F WCI  19
GRAND ISLAND   FAIR      26   5  40 NE6       30.49F WCI  19
KANSAS CITY    CLOUDY    26  21  81 NE14      30.50S WCI  14
WICHITA        CLOUDY    27  17  66 N20       30.41F WCI  13
DODGE CITY     CLOUDY    25   0  33 NE14      30.36F WCI  13
OKLAHOMA CITY  SLEET     24  21  88 NE15      30.33F FOG     WCI  11
DALLAS         RAIN      35  32  88 N16       30.25F FOG     WCI  25
AMARILLO       CLOUDY    31   3  30 N13       30.26F WCI  21
$$




USA.gov is the U.S. government's official web portal to all federal, state and local government web resources and services.